Natchez, MS

6:52 PM CST on November 13, 2019 (GMT -0600)
Hardy-Anders-Adams County

Weather History for KHEZ - September, 2019

Change the Weather History Date:

Wednesday, September 11, 2019

  Actual Average Record
Temperature  
Mean Temperature 82 °F -  
Max Temperature 93 °F 87 °F 97 °F (1930)
Min Temperature 71 °F 67 °F 54 °F (1976)
Cooling Degree Days 17    
Growing Degree Days 32 (Base 50)    
Moisture  
Dew Point 72 °F    
Average Humidity 71    
Maximum Humidity 96    
Minimum Humidity 45    
Precipitation  
Precipitation 0.00 in - - ()
Sea Level Pressure  
Sea Level Pressure 30.15 in    
Wind  
Wind Speed 5 mph (SE)    
Max Wind Speed 10 mph    
Max Gust Speed -    
Visibility 10 miles    
Events      
Averages and records for this station are not official NWS values.
T = Trace of Precipitation, MM = Missing Value Source: NWS Daily Summary

Daily Weather History Graph

Daily Weather History Graph

Search for Another Location

Airport or City:

Astronomy

Sep. 11, 2019 Rise Set
Actual Time 6:46 AM CDT 7:16 PM CDT
Civil Twilight 6:22 AM CDT 7:40 PM CDT
Nautical Twilight 5:53 AM CDT 8:09 PM CDT
Astronomical Twilight 5:24 AM CDT 8:38 PM CDT
Moon 6:17 PM CDT (9/11) 4:23 AM CDT (9/11)
Length of Visible Light 13h 18m
Length of Day
12h 29m
Waxing Gibbous, 95% of the Moon is Illuminated
Sep 11
Waxing Gibbous
Sep 13
Full
Sep 21
Last Quarter
Sep 28
New
Oct 5
First Quarter

Hourly Weather History & Observations

Time (CDT) Temp. Heat Index Dew Point Humidity Pressure Visibility Wind Dir Wind Speed Gust Speed Precip Events Conditions
1:56 AM 75.9 °F - 72.0 °F 87% 30.16 in 10.0 mi SSE 6.9 mph - N/A   Clear
2:56 AM 75.0 °F - 71.1 °F 87% 30.14 in 10.0 mi SSE 5.8 mph - N/A   Clear
3:56 AM 73.9 °F - 71.1 °F 91% 30.14 in 10.0 mi SSW 3.5 mph - N/A   Clear
4:56 AM 73.0 °F - 71.1 °F 93% 30.14 in 10.0 mi SSE 3.5 mph - N/A   Clear
5:56 AM 73.0 °F - 71.1 °F 93% 30.17 in 10.0 mi Calm Calm - N/A   Clear
6:56 AM 71.1 °F - 70.0 °F 96% 30.17 in 10.0 mi Calm Calm - N/A   Clear
7:56 AM 75.0 °F - 72.0 °F 90% 30.19 in 10.0 mi Calm Calm - N/A   Clear
8:56 AM 81.0 °F 86.2 °F 73.9 °F 79% 30.21 in 10.0 mi SSE 5.8 mph - N/A   Clear
9:56 AM 84.0 °F 91.2 °F 73.9 °F 72% 30.22 in 10.0 mi Variable 3.5 mph - N/A   Clear
10:54 AM 86.0 °F 93.4 °F 73.4 °F 66% 30.22 in 10.0 mi ESE 6.9 mph - N/A   Mostly Cloudy
10:56 AM 86.0 °F 93.0 °F 73.0 °F 65% 30.21 in 10.0 mi ESE 6.9 mph - N/A   Mostly Cloudy
11:16 AM 87.8 °F 95.6 °F 73.4 °F 62% 30.21 in 10.0 mi SE 10.4 mph - N/A   Scattered Clouds
11:56 AM 89.1 °F 98.0 °F 73.9 °F 61% 30.20 in 10.0 mi SSW 8.1 mph - N/A   Partly Cloudy
12:56 PM 89.1 °F 97.0 °F 73.0 °F 59% 30.18 in 10.0 mi East 5.8 mph - N/A   Scattered Clouds
1:56 PM 91.0 °F 97.6 °F 71.1 °F 52% 30.14 in 9.0 mi South 5.8 mph - N/A   Scattered Clouds
2:49 PM 93.2 °F 100.5 °F 71.6 °F 49% 30.13 in 10.0 mi South 9.2 mph - N/A   Partly Cloudy
2:56 PM 93.0 °F 99.0 °F 70.0 °F 47% 30.12 in 10.0 mi Calm Calm - N/A   Scattered Clouds
3:56 PM 93.0 °F 99.0 °F 70.0 °F 47% 30.10 in 10.0 mi Variable 6.9 mph - N/A   Partly Cloudy
4:56 PM 91.9 °F 96.9 °F 69.1 °F 47% 30.09 in 10.0 mi SSE 8.1 mph - N/A   Clear
5:56 PM 91.9 °F 95.9 °F 68.0 °F 45% 30.08 in 10.0 mi ESE 5.8 mph - N/A   Clear
6:28 PM 89.6 °F 94.7 °F 69.8 °F 52% 30.08 in 10.0 mi ESE 4.6 mph - N/A   Partly Cloudy
6:56 PM 87.1 °F 92.8 °F 71.1 °F 59% 30.08 in 10.0 mi ESE 3.5 mph - N/A   Clear
7:56 PM 81.0 °F 85.8 °F 73.0 °F 77% 30.10 in 10.0 mi Calm Calm - N/A   Clear
8:56 PM 78.1 °F - 73.0 °F 84% 30.11 in 10.0 mi SSE 3.5 mph - N/A   Clear
9:56 PM 77.0 °F - 73.0 °F 88% 30.12 in 10.0 mi Calm Calm - N/A   Clear
10:56 PM 78.1 °F - 72.0 °F 81% 30.12 in 10.0 mi Calm Calm - N/A   Clear
11:56 PM 77.0 °F - 72.0 °F 84% 30.12 in 10.0 mi Calm Calm - N/A   Clear